Temp
-13 -12 -12 -12 -12 -12 -12 -12 -12 -12 -12 -12 -12 -12 -12 -12 -12 -12 -12 -12 -12 -12 -12 -12 -13 -13 -13 -13 -13 -12 -12 -12 -12 -12 -12 -12 -12 -12 -12 -12 -12 -12
-13 -12 -12 -12 -12 -13 -13 -12 -12 -12 -12 -12 -12 -12 -12 -12 -12 -12 -12 -12 -12 -12 -12 -12 -12 -13 -13 -13 -13 -13 -13 -13 -12 -12 -12 -12 -12 -12 -12 -12 -12 -12
-13 -12 -12 -13 -13 -13 -13 -13 -12 -12 -12 -12 -12 -12 -12 -12 -12 -12 -12 -12 -12 -12 -12 -12 -12 -12 -13 -13 -13 -13 -13 -13 -13 -13 -13 -13 -13 -13 -12 -13 -13 -12
-13 -13 -13 -13 -13 -13 -13 -13 -13 -13 -13 -13 -13 -13 -13 -13 -13 -13 -13 -13 -13 -12 -12 -12 -12 -12 -12 -12 -13 -13 -13 -13 -13 -13 -13 -13 -13 -13 -13 -13 -13 -13
-13 -13 -13 -13 -13 -13 -13 -13 -13 -13 -13 -13 -13 -13 -13 -13 -13 -13 -13 -13 -13 -13 -13 -13 -13 -13 -12 -12 -12 -12 -13 -13 -13 -13 -13 -13 -13 -13 -13 -13 -13 -13
-13 -13 -13 -13 -13 -13 -13 -13 -13 -13 -13 -13 -13 -13 -13 -13 -13 -13 -13 -13 -13 -13 -13 -13 -13 -13 -13 -13 -13 -13 -13 -13 -13 -13 -13 -14 -13 -13 -13 -13 -13 -13
-13 -13 -13 -13 -13 -14 -13 -13 -13 -13 -13 -13 -13 -13 -14 -14 -14 -14 -14 -14 -14 -14 -14 -14 -13 -14 -14 -14 -14 -13 -13 -13 -13 -13 -14 -14 -14 -14 -14 -14 -14 -14
-14 -14 -14 -14 -14 -14 -14 -14 -14 -14 -14 -14 -14 -14 -14 -14 -14 -14 -14 -14 -14 -14 -14 -14 -14 -14 -14 -14 -14 -14 -14 -14 -14 -14 -14 -14 -14 -14 -14 -14 -14 -14
-14 -14 -14 -14 -14 -14 -14 -14 -14 -14 -15 -15 -15 -14 -14 -14 -14 -14 -14 -14 -14 -15 -15 -15 -15 -15 -15 -15 -15 -15 -15 -15 -15 -15 -14 -14 -15 -15 -15 -14 -14 -14
-14 -14 -14 -14 -14 -14 -14 -14 -15 -15 -15 -15 -15 -14 -14 -14 -15 -15 -15 -15 -15 -15 -15 -15 -15 -15 -15 -15 -15 -15 -16 -16 -16 -16 -15 -15 -15 -15 -15 -15 -15 -14
-15 -15 -15 -15 -15 -15 -15 -15 -15 -15 -15 -15 -15 -15 -15 -15 -15 -15 -15 -15 -16 -16 -16 -16 -16 -16 -16 -16 -16 -16 -17 -17 -17 -17 -17 -16 -16 -16 -16 -15 -15 -15
-15 -15 -15 -15 -15 -15 -15 -15 -15 -15 -15 -15 -15 -15 -15 -15 -16 -16 -16 -16 -16 -16 -16 -17 -17 -17 -17 -17 -18 -18 -18 -18 -18 -18 -18 -17 -17 -17 -16 -16 -16 -16
-15 -15 -16 -16 -16 -16 -16 -16 -15 -15 -15 -15 -15 -16 -16 -16 -16 -16 -17 -17 -17 -17 -17 -17 -18 -18 -18 -18 -18 -19 -18 -18 -18 -19 -19 -18 -18 -17 -17 -16 -16 -16
-16 -16 -16 -16 -16 -16 -16 -16 -15 -15 -15 -16 -16 -16 -16 -17 -17 -17 -17 -17 -18 -18 -18 -18 -18 -18 -19 -19 -19 -19 -19 -19 -19 -19 -19 -19 -18 -18 -18 -17 -17 -16
-16 -16 -16 -16 -16 -16 -16 -16 -15 -16 -16 -16 -16 -17 -17 -17 -18 -18 -18 -18 -18 -19 -19 -19 -19 -19 -19 -20 -20 -20 -20 -20 -19 -19 -19 -19 -19 -19 -18 -18 -17 -17
-16 -16 -16 -16 -16 -16 -16 -16 -16 -16 -16 -17 -17 -17 -18 -18 -18 -18 -18 -19 -19 -19 -19 -19 -19 -20 -20 -20 -20 -20 -20 -20 -20 -20 -20 -20 -20 -19 -19 -18 -18 -17
-17 -17 -16 -16 -16 -16 -16 -16 -16 -17 -17 -17 -17 -18 -18 -18 -19 -19 -19 -19 -19 -19 -20 -20 -20 -20 -20 -20 -20 -20 -20 -20 -20 -20 -21 -21 -20 -20 -20 -19 -18 -18
-17 -17 -16 -16 -16 -16 -16 -17 -17 -17 -17 -18 -18 -18 -19 -19 -19 -19 -19 -20 -20 -20 -20 -20 -20 -20 -20 -20 -20 -20 -20 -20 -20 -20 -20 -20 -20 -20 -20 -20 -19 -18
-17 -17 -16 -16 -16 -17 -17 -17 -17 -18 -18 -18 -19 -19 -19 -19 -19 -19 -20 -20 -20 -20 -20 -20 -20 -20 -20 -20 -20 -20 -20 -20 -20 -20 -20 -20 -20 -20 -20 -20 -19 -19
-17 -17 -17 -17 -17 -17 -18 -18 -18 -18 -19 -19 -19 -20 -19 -19 -20 -20 -20 -20 -20 -20 -20 -20 -20 -20 -20 -20 -20 -20 -20 -20 -20 -20 -20 -20 -20 -20 -20 -20 -20 -19
-17 -17 -17 -17 -18 -18 -18 -18 -18 -19 -19 -20 -20 -20 -20 -20 -20 -20 -20 -20 -20 -20 -20 -20 -20 -20 -20 -20 -20 -20 -20 -20 -20 -20 -20 -20 -20 -20 -20 -20 -20 -20
-17 -17 -18 -18 -18 -18 -18 -18 -19 -19 -20 -20 -20 -20 -20 -20 -20 -20 -20 -20 -20 -20 -20 -20 -19 -20 -20 -20 -20 -20 -20 -20 -20 -20 -20 -20 -20 -20 -20 -20 -20 -20
-18 -18 -18 -18 -18 -18 -19 -19 -19 -20 -20 -20 -20 -20 -20 -20 -20 -20 -20 -20 -20 -20 -20 -20 -19 -19 -20 -20 -20 -20 -20 -20 -20 -20 -20 -20 -20 -20 -20 -20 -20 -21
-18 -18 -18 -18 -19 -19 -19 -20 -20 -20 -20 -20 -20 -20 -20 -20 -20 -20 -20 -20 -20 -19 -19 -19 -19 -19 -20 -20 -20 -20 -20 -20 -20 -20 -20 -20 -20 -20 -20 -20 -20 -21
-18 -18 -19 -19 -19 -20 -20 -20 -20 -20 -20 -20 -20 -20 -20 -21 -20 -20 -20 -19 -19 -19 -19 -19 -19 -19 -20 -20 -20 -20 -20 -20 -20 -20 -20 -20 -20 -20 -20 -20 -20 -21
-18 -19 -19 -19 -20 -20 -20 -20 -20 -20 -20 -20 -20 -21 -21 -20 -20 -20 -19 -19 -19 -19 -19 -19 -20 -20 -20 -20 -20 -20 -20 -20 -21 -21 -20 -20 -20 -20 -20 -20 -20 -21
Height
5770 5769 5767 5765 5764 5762 5760 5759 5757 5755 5754 5753 5752 5750 5749 5747 5746 5746 5745 5745 5745 5744 5744 5744 5744 5744 5744 5743 5742 5741 5741 5741 5741 5742 5742 5742 5742 5744 5745 5747 5748 5749
5765 5763 5761 5759 5757 5755 5754 5752 5750 5748 5747 5746 5744 5743 5741 5740 5739 5738 5737 5736 5736 5736 5735 5735 5735 5735 5735 5735 5735 5734 5734 5733 5733 5734 5734 5735 5735 5736 5738 5740 5741 5742
5758 5756 5754 5752 5750 5749 5747 5744 5743 5741 5740 5738 5736 5735 5733 5732 5731 5730 5729 5728 5727 5726 5726 5726 5725 5725 5726 5726 5726 5726 5726 5726 5725 5725 5725 5727 5727 5728 5729 5731 5733 5735
5751 5749 5747 5745 5743 5741 5739 5737 5736 5734 5732 5731 5729 5728 5726 5725 5724 5722 5721 5720 5718 5718 5717 5716 5716 5716 5716 5716 5716 5716 5717 5717 5717 5716 5716 5717 5719 5719 5720 5722 5724 5727
5744 5742 5740 5738 5736 5734 5732 5730 5728 5726 5724 5723 5721 5719 5718 5716 5715 5714 5712 5711 5709 5709 5708 5707 5706 5706 5705 5705 5705 5706 5706 5706 5707 5707 5707 5707 5709 5710 5711 5713 5715 5718
5736 5734 5732 5730 5728 5725 5723 5721 5720 5718 5716 5714 5712 5710 5708 5707 5705 5704 5702 5701 5699 5698 5697 5696 5696 5695 5694 5693 5693 5694 5695 5695 5695 5696 5696 5697 5698 5699 5701 5703 5705 5708
5728 5726 5724 5722 5720 5717 5715 5713 5711 5709 5706 5704 5702 5700 5698 5696 5695 5693 5692 5690 5689 5687 5685 5684 5683 5683 5682 5681 5681 5682 5683 5683 5684 5684 5685 5687 5688 5688 5689 5692 5695 5698
5720 5718 5716 5714 5712 5709 5707 5705 5702 5700 5697 5695 5693 5691 5688 5685 5684 5682 5680 5679 5677 5676 5674 5672 5671 5670 5669 5669 5669 5670 5671 5671 5672 5672 5672 5674 5677 5677 5678 5680 5684 5687
5712 5709 5707 5705 5703 5700 5698 5696 5693 5691 5688 5685 5683 5681 5678 5675 5672 5670 5668 5666 5665 5664 5662 5661 5660 5658 5657 5657 5657 5657 5658 5658 5659 5660 5660 5662 5664 5666 5667 5669 5672 5676
5703 5701 5698 5696 5693 5691 5689 5686 5683 5681 5678 5675 5672 5670 5668 5664 5661 5658 5656 5654 5653 5651 5650 5649 5647 5646 5646 5646 5645 5644 5644 5645 5646 5647 5648 5649 5652 5654 5657 5658 5661 5664
5694 5692 5689 5687 5684 5682 5679 5676 5674 5671 5668 5665 5662 5659 5657 5653 5651 5648 5645 5643 5641 5639 5637 5637 5635 5634 5633 5633 5633 5632 5632 5632 5633 5634 5635 5637 5639 5642 5645 5648 5650 5653
5686 5683 5680 5678 5676 5674 5671 5668 5665 5662 5658 5655 5651 5648 5646 5643 5640 5637 5634 5631 5630 5627 5625 5625 5624 5623 5622 5622 5622 5621 5621 5622 5622 5622 5623 5624 5627 5629 5633 5636 5639 5642
5677 5675 5672 5669 5667 5665 5662 5658 5655 5652 5648 5644 5641 5637 5635 5632 5629 5626 5623 5620 5618 5616 5614 5613 5613 5613 5612 5612 5611 5610 5610 5611 5612 5611 5612 5613 5615 5618 5621 5624 5628 5631
5669 5666 5663 5661 5658 5655 5652 5648 5645 5641 5637 5633 5630 5626 5624 5621 5617 5614 5611 5609 5607 5605 5604 5603 5603 5603 5602 5600 5600 5599 5598 5599 5601 5601 5601 5602 5604 5606 5610 5613 5617 5620
5660 5657 5655 5652 5649 5645 5642 5639 5635 5630 5627 5623 5620 5616 5613 5610 5607 5603 5601 5599 5597 5595 5595 5594 5592 5592 5590 5587 5586 5585 5585 5585 5587 5588 5589 5591 5593 5595 5598 5602 5606 5609
5651 5649 5646 5643 5639 5636 5632 5628 5624 5620 5616 5613 5610 5607 5603 5600 5596 5594 5592 5590 5588 5586 5585 5583 5581 5580 5578 5575 5573 5573 5572 5572 5573 5574 5576 5578 5581 5584 5586 5590 5595 5599
5643 5640 5637 5633 5629 5625 5621 5617 5613 5610 5607 5603 5600 5597 5593 5589 5587 5585 5582 5580 5578 5577 5574 5572 5571 5570 5569 5568 5566 5566 5565 5565 5565 5565 5565 5567 5569 5572 5574 5578 5583 5588
5634 5631 5627 5623 5619 5614 5610 5606 5602 5599 5596 5593 5590 5587 5583 5580 5578 5575 5573 5571 5568 5566 5564 5563 5563 5562 5562 5561 5560 5559 5559 5559 5558 5558 5558 5559 5560 5561 5563 5566 5571 5576
5625 5622 5618 5613 5608 5604 5600 5596 5593 5590 5587 5583 5580 5577 5574 5571 5569 5566 5564 5562 5559 5557 5555 5555 5555 5554 5554 5553 5552 5551 5551 5550 5551 5550 5550 5550 5551 5553 5554 5555 5559 5564
5615 5611 5608 5603 5599 5595 5591 5587 5584 5580 5577 5574 5570 5567 5564 5562 5560 5557 5555 5552 5549 5548 5547 5547 5547 5546 5545 5544 5543 5542 5542 5541 5542 5542 5541 5542 5543 5544 5545 5546 5548 5551
5606 5602 5598 5594 5590 5586 5582 5578 5575 5571 5568 5564 5561 5558 5555 5553 5550 5547 5545 5542 5540 5539 5539 5538 5538 5537 5536 5534 5533 5533 5532 5532 5532 5532 5532 5533 5534 5535 5536 5537 5538 5539
5597 5593 5589 5585 5581 5577 5573 5569 5566 5563 5559 5555 5552 5549 5546 5544 5541 5537 5535 5533 5532 5531 5530 5528 5528 5527 5525 5524 5523 5522 5522 5522 5522 5523 5523 5523 5525 5525 5526 5528 5529 5529
5588 5585 5581 5577 5572 5568 5564 5561 5558 5555 5551 5547 5543 5541 5537 5534 5531 5528 5526 5525 5523 5522 5520 5518 5517 5515 5514 5513 5512 5511 5510 5510 5511 5512 5513 5514 5515 5516 5517 5518 5520 5520
5580 5576 5572 5568 5564 5560 5557 5554 5550 5547 5543 5539 5535 5532 5529 5525 5521 5519 5518 5516 5514 5512 5511 5509 5506 5505 5504 5502 5502 5500 5498 5498 5499 5500 5502 5503 5504 5505 5506 5508 5510 5512
5572 5567 5563 5559 5556 5553 5550 5546 5543 5539 5535 5531 5527 5523 5520 5516 5513 5511 5509 5508 5505 5502 5499 5497 5495 5495 5493 5491 5491 5491 5488 5486 5487 5487 5489 5492 5494 5494 5496 5498 5500 5503
5564 5559 5555 5552 5549 5547 5543 5539 5535 5531 5527 5524 5520 5515 5512 5509 5506 5503 5500 5498 5495 5491 5488 5486 5483 5483 5483 5480 5477 5478 5477 5476 5475 5475 5477 5480 5482 5483 5485 5487 5491 5494
Wind_Speed
52 54 55 55 56 57 57 58 58 59 58 58 59 59 59 59 59 59 59 59 58 57 57 55 54 54 53 53 54 54 54 54 53 53 52 52 51 50 47 45 44 42
53 55 56 57 57 58 58 59 59 60 60 60 60 61 61 62 62 62 62 62 61 60 60 59 58 58 56 55 55 55 55 56 56 55 55 54 54 53 52 49 47 46
55 56 57 58 58 58 59 60 60 61 61 62 62 63 63 64 64 64 64 64 64 64 63 63 62 62 61 59 59 58 57 57 58 58 57 57 56 55 55 52 50 49
57 57 58 58 58 59 60 60 61 61 62 63 64 64 64 65 65 65 65 65 66 66 66 66 66 65 64 63 62 61 60 59 59 60 60 59 58 58 57 56 53 51
58 58 58 59 59 60 61 62 62 63 64 65 65 66 66 66 66 66 66 67 67 68 68 67 67 67 66 66 65 64 62 61 60 60 61 61 61 60 59 58 57 54
59 58 59 60 61 62 62 63 64 65 66 66 67 67 67 68 68 68 69 69 69 70 69 68 67 66 66 66 66 65 64 63 62 61 61 61 62 62 61 61 60 57
59 59 60 61 62 63 63 64 66 66 67 68 69 69 69 70 70 71 70 70 70 69 69 69 68 67 67 67 66 65 65 64 64 63 62 61 61 63 63 62 61 60
60 60 61 62 62 63 65 65 66 67 67 69 70 70 71 73 73 73 72 71 70 69 68 68 68 68 67 67 66 65 65 64 64 64 63 61 60 61 63 63 62 62
60 61 62 63 64 65 66 66 67 67 68 69 71 72 73 73 73 73 72 71 69 68 68 67 67 68 67 67 67 66 66 65 64 64 64 63 60 60 61 62 62 62
61 62 63 64 65 66 66 67 68 69 70 72 73 73 73 73 72 71 70 70 69 68 68 67 68 68 68 68 68 67 67 66 64 63 63 63 61 60 60 61 62 62
62 63 64 65 65 66 66 67 69 70 72 73 74 73 73 71 70 69 69 69 68 69 69 69 69 69 68 67 66 65 65 64 62 61 60 61 61 59 58 59 62 63
62 63 64 64 65 65 66 68 70 71 73 73 73 72 70 69 68 68 68 69 69 70 69 68 66 65 64 63 61 61 61 59 59 58 58 58 58 57 57 58 61 63
62 63 63 64 66 67 68 70 72 73 73 72 71 70 68 68 68 68 69 70 69 67 66 64 63 61 61 60 59 60 59 58 58 58 59 58 57 56 56 56 60 63
62 63 64 65 67 68 70 72 72 72 72 70 69 68 68 68 69 69 69 67 65 64 62 61 60 59 60 62 62 62 63 62 60 60 60 60 59 58 56 55 58 63
62 63 65 66 68 70 71 72 72 71 70 68 67 68 68 68 68 67 64 62 62 61 60 60 62 64 65 67 67 67 67 67 66 65 65 63 62 61 59 57 57 61
63 64 66 67 69 71 72 72 71 69 68 67 68 68 67 66 64 62 60 60 59 59 61 64 63 59 54 52 51 51 52 54 56 59 62 64 65 64 63 60 58 60
63 65 67 69 71 72 72 70 69 67 67 68 68 66 64 62 60 59 59 58 59 62 63 58 47 40 37 36 37 37 38 39 41 43 46 50 56 62 66 65 62 60
64 66 68 70 72 71 70 68 68 68 69 68 65 62 60 58 58 58 57 58 62 62 54 43 36 37 39 41 42 42 42 42 42 43 43 42 44 49 58 65 67 64
65 67 69 71 70 69 68 68 69 69 67 64 60 58 57 57 57 57 57 61 61 53 43 39 41 44 45 46 47 47 46 46 45 45 46 46 45 44 47 54 65 69
67 69 70 69 68 67 68 69 69 67 63 58 56 56 57 58 57 57 60 60 53 44 42 44 47 47 48 49 49 48 48 48 47 46 46 46 47 47 46 46 54 67
68 69 68 67 67 67 68 68 65 61 57 55 56 57 58 57 58 61 61 54 45 43 46 49 49 50 51 51 51 50 49 48 47 47 47 46 46 47 48 46 47 58
68 67 65 66 67 68 67 65 59 55 54 55 56 57 58 59 61 61 56 47 44 48 51 52 53 53 54 54 54 54 53 51 49 47 47 48 47 46 47 48 46 50
66 65 65 66 67 66 63 58 54 53 54 55 56 57 60 61 60 55 48 45 48 53 55 56 58 59 59 59 58 57 56 55 53 51 49 49 49 48 47 49 47 45
63 64 65 65 63 60 56 53 53 54 54 55 57 59 60 58 53 48 46 49 54 57 58 60 62 63 62 61 59 58 57 56 54 53 52 50 49 49 48 49 48 44
62 63 63 61 57 53 52 53 54 54 54 57 59 58 54 51 50 49 51 54 58 61 63 65 65 64 63 62 58 55 55 56 55 55 55 52 49 50 50 50 48 44
61 61 58 54 51 50 51 52 52 54 57 57 55 52 50 50 52 54 56 59 63 65 67 67 66 63 60 60 59 55 53 52 52 53 55 55 52 50 51 50 48 45
Wind_Direction
288 292 293 293 293 294 294 295 295 296 296 296 296 296 297 297 297 297 297 296 296 295 295 293 292 290 289 288 287 287 287 285 284 283 282 281 280 279 277 275 274 273
289 291 291 292 292 293 293 294 294 295 295 295 296 296 297 297 297 297 296 296 295 295 294 293 292 291 290 288 287 286 285 285 284 282 280 279 278 277 276 273 272 271
289 290 290 291 292 292 293 293 294 294 295 295 295 296 296 297 297 296 296 295 294 294 293 292 292 291 289 288 287 285 284 283 282 281 279 278 276 275 274 272 270 268
289 290 290 291 291 292 292 292 293 293 293 294 294 295 295 295 295 295 294 294 293 292 292 291 291 290 289 288 286 285 283 281 279 278 277 276 274 273 272 270 268 266
290 290 291 291 291 291 291 292 292 292 293 293 294 294 294 294 294 294 293 293 292 292 291 290 290 289 288 287 285 284 282 280 277 275 273 273 271 270 269 268 266 263
290 290 290 290 290 291 292 292 292 293 293 294 294 294 294 294 294 294 294 293 292 292 291 290 289 288 287 285 284 283 281 279 276 273 271 269 268 267 265 264 263 261
290 290 290 290 291 291 292 292 293 294 295 295 295 295 295 295 295 294 294 293 292 292 291 290 289 287 285 283 282 281 279 277 275 273 270 267 264 264 263 261 260 259
290 290 290 290 291 292 292 293 294 295 295 295 295 296 296 296 296 295 294 293 292 291 289 288 286 285 283 282 280 279 277 275 273 271 269 266 262 260 260 259 257 256
289 290 290 291 291 292 293 294 294 295 295 296 296 296 296 296 296 295 294 292 291 289 287 285 284 282 281 280 279 277 275 273 271 269 266 264 261 258 256 256 254 253
290 290 291 292 292 293 294 295 295 296 296 296 297 297 296 295 294 293 291 290 289 287 286 284 283 282 280 279 278 277 275 273 271 268 265 263 260 256 253 252 252 251
290 291 292 292 293 294 295 295 295 296 297 297 297 296 295 293 292 291 289 289 288 287 286 285 284 283 282 280 279 277 276 275 273 270 266 263 259 255 251 248 248 248
291 291 292 293 293 294 295 295 296 297 297 297 296 294 293 292 291 290 289 289 288 287 287 286 285 284 283 281 280 278 276 275 274 271 268 264 260 255 250 245 243 243
292 293 293 294 294 295 296 297 298 298 297 296 294 293 292 292 291 291 290 290 289 287 287 286 285 284 283 282 280 279 277 274 272 271 268 266 262 257 250 244 240 239
293 294 294 295 296 297 298 299 299 298 296 295 293 293 293 293 292 292 291 289 288 287 287 287 286 286 285 284 281 279 276 273 271 269 267 265 263 259 254 246 239 236
295 294 295 296 297 298 299 299 298 296 295 294 293 294 294 294 292 291 289 288 288 288 288 289 289 288 286 283 280 277 274 272 269 267 265 263 262 260 257 250 241 236
294 295 296 297 299 300 300 299 297 295 294 294 294 295 294 292 290 288 288 288 288 290 291 292 290 288 284 281 279 277 275 273 270 267 264 261 259 258 256 252 245 237
294 296 298 299 300 301 299 297 296 295 294 295 295 294 292 290 288 288 289 290 292 294 294 292 288 286 285 285 284 282 280 278 276 272 269 264 259 256 253 251 247 240
296 298 300 301 301 300 298 296 295 295 295 296 295 292 290 289 290 291 292 294 296 296 291 286 284 285 287 287 285 284 282 280 277 274 272 269 265 260 254 250 246 242
299 301 303 302 300 298 296 295 295 296 296 295 293 291 290 291 292 292 294 297 296 290 283 281 285 287 287 286 285 283 282 280 276 272 270 268 265 263 261 254 247 241
302 303 303 301 298 296 295 295 296 296 295 294 293 292 292 292 293 294 296 296 290 281 280 285 288 288 288 286 284 282 281 278 274 270 267 266 264 262 263 263 253 242
304 303 301 298 296 295 295 296 296 296 295 294 294 293 293 293 294 296 297 292 283 280 285 289 289 289 287 285 284 283 282 279 274 269 265 263 263 262 260 263 262 248
303 300 297 295 295 296 296 296 296 296 295 295 294 293 293 295 296 296 294 286 281 285 289 289 289 288 287 287 286 285 283 280 276 271 267 263 262 262 259 259 263 255
300 297 295 295 296 296 296 297 297 297 296 295 294 294 295 296 296 293 288 284 284 288 289 289 289 289 289 289 289 286 283 280 276 271 268 265 261 260 258 256 258 259
296 295 296 297 297 297 297 298 298 297 296 295 295 296 297 296 294 290 286 285 287 288 288 288 289 289 290 289 287 285 281 277 275 270 266 265 262 258 257 255 254 257
295 297 298 298 297 297 298 298 297 296 296 296 297 298 297 294 292 290 288 287 288 289 289 289 290 291 290 289 286 283 279 275 272 269 264 261 260 257 255 254 252 253
297 299 298 297 297 298 297 296 296 296 298 298 298 297 294 293 292 291 289 290 290 291 291 292 292 292 291 290 289 286 282 278 272 268 264 259 256 254 252 252 249 249